Waarnemingen

Advertentie
Mijn weer
Murcia, Spanje (8430): temperatuur & dauwpunt: 17.05.2018 20:00:00 - 23.05.2018 20:00:00 (CEST)Murcia, Spanje (8430): windsnelheid: 17.05.2018 20:00:00 - 23.05.2018 20:00:00 (CEST)Murcia, Spanje (8430): windrichting: 17.05.2018 20:00:00 - 23.05.2018 20:00:00 (CEST)Murcia, Spanje (8430): luchtdruk: 17.05.2018 20:00:00 - 23.05.2018 20:00:00 (CEST)Murcia, Spanje (8430): zicht: 17.05.2018 20:00:00 - 23.05.2018 20:00:00 (CEST)Murcia, Spanje (8430): neerslag: 17.05.2018 20:00:00 - 23.05.2018 20:00:00 (CEST)
Datum & Tijd tt [°C] td [°C] ff [km/u] ff [kn] dd ppp [hPa] vv [km] rr [mm]
23.05.2018 20:00:00 - - - - - - - -
23.05.2018 19:00:00 25,8 3,1 18 10 ONO 1015,4 20 0,0
23.05.2018 18:00:00 27,2 3,6 18 10 O 1015,3 20 0,0
23.05.2018 17:00:00 26,7 4,4 16 9 ONO 1015,5 20 -
23.05.2018 16:00:00 29,9 3,0 11 6 ZO 1015,8 20 0,0
23.05.2018 15:00:00 30,4 0,8 13 7 OZO 1015,8 20 0,0
23.05.2018 14:00:00 28,7 6,1 16 9 ONO 1016,2 20 -
23.05.2018 13:00:00 26,7 9,5 13 7 NO 1016,7 20 0,0
23.05.2018 12:00:00 25,2 9,1 15 8 ONO 1017,1 20 0,0
23.05.2018 11:00:00 22,1 12,9 8 4 ONO 1017,7 18 -
23.05.2018 10:00:00 19,7 14,9 5 3 O 1017,9 10 0,0
23.05.2018 09:00:00 17,3 14,9 2 1 ZZW 1017,6 7 0,0
23.05.2018 08:00:00 16,1 15,0 8 4 ONO 1017,1 1,0 -
23.05.2018 07:00:00 15,3 13,5 2 1 OZO 1016,8 7 0,0
23.05.2018 06:00:00 16,3 15,0 4 2 NO 1016,5 4,2 0,0
23.05.2018 05:00:00 17,0 15,9 4 2 O 1016,2 4,1 -
23.05.2018 04:00:00 16,9 14,4 2 1 ONO 1016,0 11 0,0
23.05.2018 03:00:00 17,9 15,3 5 3 O 1016,1 13 0,0
23.05.2018 02:00:00 18,6 14,1 4 2 O 1016,3 20 -
23.05.2018 01:00:00 19,0 14,5 8 4 NO 1016,4 20 0,0
23.05.2018 00:00:00 20,0 14,6 15 8 NO 1016,1 20 0,0
22.05.2018 23:00:00 21,8 10,9 13 7 NO 1015,6 20 -
22.05.2018 22:00:00 23,5 7,1 9 5 Z 1014,6 20 0,0
22.05.2018 21:00:00 25,0 7,2 9 5 Z 1013,7 20 0,0
22.05.2018 20:00:00 26,8 9,2 15 8 Z 1012,9 20 -
22.05.2018 19:00:00 28,3 8,0 16 9 Z 1012,4 20 0,0
22.05.2018 18:00:00 29,9 8,3 15 8 ZZO 1012,0 20 0,0
22.05.2018 17:00:00 29,1 8,7 15 8 ZZO 1011,9 20 -
22.05.2018 16:00:00 30,3 7,5 8 4 ZZO 1012,2 20 0,0
22.05.2018 15:00:00 29,4 7,9 5 3 W 1012,6 20 0,0
22.05.2018 14:00:00 28,2 8,5 11 6 OZO 1013,1 20 -
22.05.2018 13:00:00 27,6 8,5 5 3 ONO 1013,5 20 0,0
22.05.2018 12:00:00 26,1 9,0 5 3 NW 1013,9 20 0,0
22.05.2018 11:00:00 23,9 10,2 5 3 ZZW 1014,3 20 -
22.05.2018 10:00:00 21,6 10,1 8 4 WNW 1014,4 20 0,0
22.05.2018 09:00:00 18,8 10,4 8 4 WZW 1014,2 20 0,0
22.05.2018 08:00:00 16,7 10,8 5 3 Z 1013,8 20 -
22.05.2018 07:00:00 15,5 10,5 2 1 Z 1013,4 20 0,0
22.05.2018 06:00:00 15,7 11,1 2 1 Z 1012,9 20 0,0
22.05.2018 05:00:00 17,0 11,9 4 2 ZW 1012,7 20 -
22.05.2018 04:00:00 17,2 12,3 4 2 W 1012,8 20 0,0
22.05.2018 03:00:00 17,3 13,2 4 2 NNW 1012,7 19 0,0
22.05.2018 02:00:00 18,3 13,6 5 3 Z 1012,7 16 -
22.05.2018 01:00:00 19,5 13,2 2 1 ZO 1012,9 20 0,0
22.05.2018 00:00:00 20,4 12,1 4 2 Z 1012,8 20 0,0
21.05.2018 23:00:00 21,8 10,6 5 3 ZZW 1012,4 20 -
21.05.2018 22:00:00 22,7 9,5 8 4 NNW 1011,8 20 0,0
21.05.2018 21:00:00 24,0 8,8 8 4 ZW 1011,1 20 0,0
21.05.2018 20:00:00 25,5 8,5 15 8 WZW 1010,4 20 -
21.05.2018 19:00:00 26,5 8,5 16 9 ZW 1010,2 20 0,0
21.05.2018 18:00:00 26,8 8,2 13 7 Z 1009,9 20 0,0
21.05.2018 17:00:00 27,0 9,8 15 8 Z 1009,7 20 -
21.05.2018 16:00:00 27,0 10,2 18 10 ZZO 1009,9 20 0,0
21.05.2018 15:00:00 26,6 8,5 11 6 OZO 1010,2 20 0,0
21.05.2018 14:00:00 26,5 7,0 9 5 ZO 1010,9 20 -
21.05.2018 13:00:00 25,0 9,7 5 3 O 1011,5 20 0,0
21.05.2018 12:00:00 23,6 10,3 5 3 ZO 1012,1 20 0,0
21.05.2018 11:00:00 22,1 11,5 4 2 Z 1012,5 20 -
21.05.2018 10:00:00 19,4 11,9 4 2 ZZW 1013,0 20 0,0
21.05.2018 09:00:00 17,3 11,1 2 1 Z 1013,1 20 0,0
21.05.2018 08:00:00 15,3 10,9 4 2 W 1013,1 20 -
21.05.2018 07:00:00 14,4 10,8 8 4 W 1012,9 20 0,0
21.05.2018 06:00:00 14,6 11,0 4 2 ZW 1012,5 20 0,0
21.05.2018 05:00:00 14,8 11,6 2 1 W 1012,5 20 -
21.05.2018 04:00:00 15,5 12,3 2 1 W 1012,7 20 0,0
21.05.2018 03:00:00 15,9 13,0 4 2 ONO 1012,8 20 0,0
21.05.2018 02:00:00 16,7 12,6 4 2 ONO 1013,3 20 -
21.05.2018 01:00:00 17,4 12,7 8 4 NO 1013,5 20 0,0
21.05.2018 00:00:00 18,0 12,4 8 4 NNO 1013,7 20 0,0
20.05.2018 23:00:00 19,0 11,8 5 3 ONO 1013,7 20 -
20.05.2018 22:00:00 20,3 11,2 9 5 ONO 1013,2 20 0,0
20.05.2018 21:00:00 22,0 9,8 5 3 OZO 1012,7 20 0,0
20.05.2018 20:00:00 23,5 8,7 9 5 ZO 1011,9 20 -
20.05.2018 19:00:00 24,5 9,2 11 6 OZO 1011,6 20 0,0
20.05.2018 18:00:00 25,1 9,0 11 6 ZO 1011,6 20 0,0
20.05.2018 17:00:00 25,5 8,5 15 8 O 1011,9 2,0 -
20.05.2018 16:00:00 26,1 8,6 15 8 ONO 1012,3 20 0,0
20.05.2018 15:00:00 25,9 7,0 13 7 ONO 1013,1 20 0,0
20.05.2018 14:00:00 25,7 8,2 13 7 ONO 1013,8 20 -
20.05.2018 13:00:00 24,3 9,8 13 7 ONO 1014,6 20 0,0
20.05.2018 12:00:00 22,7 9,8 5 3 OZO 1015,0 20 0,0
20.05.2018 11:00:00 21,7 10,8 4 2 ZO 1015,3 15 -
20.05.2018 10:00:00 19,2 11,7 5 3 NW 1015,5 20 0,0
20.05.2018 09:00:00 17,1 12,0 4 2 ZW 1015,4 20 0,0
20.05.2018 08:00:00 14,3 11,8 4 2 NW 1015,5 15 -
20.05.2018 07:00:00 13,7 11,6 5 3 WNW 1015,2 20 0,0
20.05.2018 06:00:00 14,4 11,9 5 3 W 1015,1 20 0,0
20.05.2018 05:00:00 14,9 12,4 5 3 WZW 1015,1 20 -
20.05.2018 04:00:00 14,5 11,8 2 1 WNW 1015,4 19 0,0
20.05.2018 03:00:00 16,0 12,5 4 2 Z 1015,8 20 0,0
20.05.2018 02:00:00 16,7 12,8 2 1 W 1016,4 20 -
20.05.2018 01:00:00 16,5 12,8 5 3 NNO 1016,7 20 0,0
20.05.2018 00:00:00 17,1 13,0 5 3 NO 1016,5 20 0,0
19.05.2018 23:00:00 18,1 13,0 8 4 ONO 1016,2 20 -
19.05.2018 22:00:00 19,0 13,0 13 7 ONO 1015,6 20 0,0
19.05.2018 21:00:00 20,3 12,3 15 8 ONO 1015,2 20 0,0
19.05.2018 20:00:00 22,1 11,2 18 10 ONO 1014,5 15 -
19.05.2018 19:00:00 23,3 11,0 21 11 ONO 1014,3 20 0,0
19.05.2018 18:00:00 24,7 10,9 21 11 ONO 1014,1 20 0,0
19.05.2018 17:00:00 25,5 10,1 16 9 ONO 1014,2 15 -
19.05.2018 16:00:00 25,2 9,5 15 8 O 1014,7 20 0,0
19.05.2018 15:00:00 24,8 9,1 13 7 O 1015,4 20 0,0
19.05.2018 14:00:00 24,6 8,9 13 7 O 1015,9 10 -
19.05.2018 13:00:00 23,9 8,7 11 6 OZO 1016,5 20 0,0
19.05.2018 12:00:00 23,2 8,8 9 5 O 1017,1 20 0,0
19.05.2018 11:00:00 21,9 9,8 5 3 ZZO 1017,1 8 -
19.05.2018 10:00:00 19,8 11,0 5 3 WNW 1017,1 20 0,0
19.05.2018 09:00:00 17,2 11,2 5 3 W 1017,0 20 0,0
19.05.2018 08:00:00 15,3 10,9 4 2 WZW 1016,6 5 -
19.05.2018 07:00:00 14,3 10,7 4 2 WZW 1016,2 20 0,0
19.05.2018 06:00:00 14,6 11,4 2 1 WNW 1016,0 20 0,0
19.05.2018 05:00:00 14,8 11,2 4 2 NO 1016,2 20 -
19.05.2018 04:00:00 15,9 12,8 5 3 NW 1016,3 19 0,0
19.05.2018 03:00:00 16,2 12,7 2 1 NNW 1016,8 20 0,0
19.05.2018 02:00:00 16,3 12,5 4 2 NO 1017,2 20 -
19.05.2018 01:00:00 16,9 11,4 4 2 NNO 1017,3 20 0,0
19.05.2018 00:00:00 17,9 10,8 8 4 O 1017,1 20 0,0
18.05.2018 23:00:00 18,8 10,1 9 5 O 1016,6 20 -
18.05.2018 22:00:00 19,9 10,3 9 5 O 1016,1 20 0,0
18.05.2018 21:00:00 20,9 9,8 15 8 ONO 1015,8 20 0,0
18.05.2018 20:00:00 22,6 9,0 18 10 ONO 1015,1 15 -
18.05.2018 19:00:00 23,8 8,6 21 11 ONO 1015,0 20 0,0
18.05.2018 18:00:00 24,8 9,1 16 9 O 1014,8 20 0,0
18.05.2018 17:00:00 25,2 8,2 18 10 O 1014,5 10 -
18.05.2018 16:00:00 25,6 7,7 15 8 O 1014,8 20 0,0
18.05.2018 15:00:00 25,4 8,4 16 9 O 1015,3 20 0,0
18.05.2018 14:00:00 25,2 8,6 13 7 OZO 1016,0 15 -
18.05.2018 13:00:00 24,2 9,0 13 7 ONO 1016,6 20 0,0
18.05.2018 12:00:00 23,1 9,5 9 5 OZO 1016,8 20 0,0
18.05.2018 11:00:00 21,5 9,4 5 3 O 1016,8 10 -
18.05.2018 10:00:00 18,9 9,7 5 3 W 1017,0 20 0,0
18.05.2018 09:00:00 16,7 9,4 4 2 ZW 1017,0 20 0,0
18.05.2018 08:00:00 14,1 9,1 2 1 W 1016,8 10 -
18.05.2018 07:00:00 13,8 9,0 4 2 WZW 1016,2 20 0,0
18.05.2018 06:00:00 14,1 9,5 4 2 ZZO 1016,1 20 0,0
18.05.2018 05:00:00 14,0 9,8 5 3 W 1016,0 20 -
18.05.2018 04:00:00 15,1 10,5 8 4 WZW 1016,2 20 0,0
18.05.2018 03:00:00 15,2 10,6 4 2 WNW 1016,1 20 0,0
18.05.2018 02:00:00 15,7 11,3 4 2 N 1016,3 20 -
18.05.2018 01:00:00 16,3 10,6 8 4 ONO 1016,8 20 0,0
18.05.2018 00:00:00 17,0 10,4 5 3 ONO 1017,3 20 0,0
17.05.2018 23:00:00 18,0 10,1 8 4 ONO 1016,8 20 -
17.05.2018 22:00:00 18,9 9,9 9 5 ONO 1016,1 20 0,0
17.05.2018 21:00:00 20,2 9,1 11 6 ONO 1015,7 20 0,0
17.05.2018 20:00:00 21,8 9,0 13 7 ONO 1015,0 20 -

tt = temperatuur
td = dauwpunt
ff = windsnelheid
dd = windrichting
ppp = luchtdruk
vv = zicht
rr = neerslag

Weerstations in de omgeving